EW4399 Weather Reports


Display with metric or nautical units.
time (UTC)temp
F
wind
direction
speed
MPH
gust
MPH
rain 1hr
in
rain 24hr
in
rain mn
in
humidity
%
barometer
mb
20260504081513 38 252 13.0 31.0 0.01 0.83 0.16 93 980.3
20260504044534 39 178 13.0 30.0 0.03 0.76 0.09 94 975.8
20260504043032 39 161 13.0 28.0 0.04 0.76 0.09 94 975.6
20260504041534 39 142 11.0 29.0 0.06 0.75 0.08 94 975.4
20260504040031 39 180 12.0 32.0 0.08 0.75 0.08 94 975.8
20260504034537 39 121 11.0 22.0 0.09 0.73 0.06 94 976.6
20260504033026 39 130 9.0 28.0 0.09 0.72 0.05 94 977.5
20260504031514 39 121 11.0 22.0 0.10 0.69 0.02 93 978.3
20260504030011 39 130 7.0 22.0 0.10 0.67 0.00 93 979.1
20260504024508 39 144 8.0 25.0 0.10 0.65 0.65 93 980.0
20260504023004 39 360 8.0 21.0 0.11 0.62 0.62 93 980.7
20260504021502 39 76 6.0 17.0 0.11 0.59 0.59 94 981.6
20260504020106 40 121 8.0 18.0 0.11 0.56 0.56 94 982.2
20260504014554 40 360 6.0 15.0 0.12 0.54 0.54 94 982.9
20260504013056 41 360 6.0 14.0 0.11 0.51 0.51 95 983.5
20260504011554 41 148 5.0 18.0 0.11 0.48 0.48 95 984.1
20260504010052 42 130 7.0 15.0 0.11 0.45 0.45 95 984.4
20260504004546 41 98 10.0 19.0 0.12 0.43 0.43 96 984.4
20260504003047 39 46 5.0 15.0 0.11 0.39 0.39 95 984.9
20260504001557 39 360 10.0 19.0 0.11 0.37 0.37 95 985.4
20260504000038 39 360 8.0 20.0 0.11 0.34 0.34 95 985.8
20260503234535 38 96 12.0 22.0 0.10 0.31 0.31 95 986.7
20260503233034 38 360 12.0 23.0 0.10 0.28 0.28 95 987.4
20260503231543 38 63 13.0 28.0 0.10 0.25 0.25 95 988.4
20260503230028 38 92 12.0 21.0 0.09 0.23 0.23 95 989.1
20260503224524 38 90 8.0 19.0 0.09 0.20 0.20 95 989.7
20260503223024 38 66 11.0 19.0 0.09 0.18 0.18 95 990.8
20260503221517 37 106 11.0 23.0 0.07 0.15 0.15 95 991.9
20260503220017 37 96 9.0 23.0 0.07 0.13 0.13 95 993.2
20260503214513 36 67 7.0 23.0 0.06 0.11 0.11 95 993.9
20260503213009 36 42 7.0 18.0 0.06 0.09 0.09 94 994.4
20260503211509 36 95 12.0 20.0 0.06 0.08 0.08 94 994.9
20260503210003 36 360 9.0 24.0 0.05 0.06 0.06 94 995.9
20260503204621 36 64 11.0 25.0 0.04 0.05 0.05 94 996.0
20260503203109 36 76 9.0 19.0 0.03 0.04 0.04 94 997.0
20260503201554 36 69 11.0 22.0 0.02 0.02 0.02 94 997.4
20260503200051 35 49 9.0 19.0 0.01 0.02 0.02 93 998.6
20260503194547 35 81 8.0 19.0 0.00 0.01 0.01 93 999.6
20260503193045 36 360 10.0 17.0 0.00 0.01 0.01 93 1000.8
20260503191557 37 37 9.0 21.0 0.01 0.01 0.01 92 1001.2
20260503190045 38 360 9.0 15.0 0.01 0.01 0.01 92 1001.7
20260503184546 39 344 8.0 19.0 0.01 0.01 0.01 92 1001.8
20260503183043 40 73 6.0 13.0 0.01 0.01 0.01 91 1002.8
20260503181533 40 48 6.0 15.0 0.00 0.00 0.00 90 1003.9
20260503180034 40 77 6.0 16.0 0.00 0.00 0.00 89 1004.7
20260503174537 40 60 6.0 16.0 0.00 0.00 0.00 87 1005.5
20260503173026 40 67 5.0 13.0 0.00 0.00 0.00 85 1006.1
20260503171528 41 360 7.0 12.0 0.00 0.00 0.00 84 1007.2
20260503090106 29 229 0.0 0.0 0.00 0.01 0.00 95 1014.9